GFSGBSN_925_temp_000.txt.gz
Temp
11 12 12 12 12 13 12 14 14 14 14 14 14 14 14 14 15 16 18 19 20 20 21 21 22 22 22 21 23 25 26 26 26 26 25 23 22 22 22 23 23 23 23 22 23 21 22
12 12 12 12 13 13 14 15 15 15 14 14 14 15 16 16 17 18 18 19 20 21 21 22 22 21 21 21 25 25 26 26 26 26 24 24 23 22 22 23 23 23 23 23 22 23 23
12 12 13 13 13 14 15 15 15 15 15 15 16 17 17 18 18 18 19 20 21 21 22 22 22 22 22 23 25 26 26 26 26 26 23 24 24 23 22 23 21 22 23 20 20 20 23
13 13 13 13 13 13 15 15 16 16 16 17 17 17 18 18 19 19 20 20 21 22 23 23 23 22 22 25 26 26 26 26 27 26 25 25 24 21 21 21 19 19 18 19 21 21 22
13 13 13 13 14 14 15 16 16 16 17 17 18 18 19 19 20 20 20 21 22 23 23 23 23 23 23 26 25 26 25 25 26 26 25 25 23 19 18 19 18 16 19 20 20 19 19
13 13 13 14 14 15 16 16 17 17 18 18 19 19 20 20 20 20 21 21 22 23 23 22 22 21 22 23 24 25 25 25 24 23 22 20 17 18 16 17 18 20 20 19 19 19 18
13 13 13 14 14 15 16 17 17 18 18 19 19 19 20 21 21 21 22 21 18 19 21 21 21 21 22 24 24 24 24 24 22 19 20 18 18 19 20 20 20 21 20 19 19 19 18
13 14 13 14 14 15 15 17 17 18 19 19 20 20 21 21 22 21 21 17 18 19 21 21 21 22 23 23 22 21 24 21 20 20 21 18 20 21 19 19 20 20 20 19 18 18 18
14 14 13 14 14 15 15 17 18 18 19 20 20 21 21 22 21 20 20 18 19 19 18 21 22 23 23 24 21 20 21 21 21 20 19 19 21 20 20 18 18 19 20 19 18 17 18
14 14 14 14 14 15 15 16 18 18 19 20 20 21 22 22 22 20 19 19 20 20 15 19 22 23 23 23 22 21 21 22 20 21 20 20 20 19 19 20 19 18 19 19 17 17 18
14 14 14 14 14 15 15 16 17 18 18 19 20 21 22 22 22 19 19 20 20 20 14 21 21 24 21 21 21 20 20 20 19 19 19 20 20 19 19 20 19 18 17 17 18 17 17
14 14 14 14 14 15 15 16 17 18 18 19 20 21 21 22 21 19 20 21 20 13 17 21 22 21 21 19 19 19 17 18 19 18 17 18 19 19 20 20 19 17 17 16 15 15 15
14 14 14 14 14 14 15 16 18 19 19 19 20 21 21 21 19 20 20 18 15 13 20 21 21 21 19 19 19 18 17 15 15 18 15 16 18 18 19 18 18 16 14 13 14 12 14
14 14 14 14 14 14 15 16 17 19 19 19 20 20 20 20 20 20 20 14 17 18 19 20 20 19 19 19 18 17 17 15 16 15 13 15 16 18 18 19 18 17 15 11 15 11 12
13 14 14 14 14 14 15 16 17 19 20 20 20 20 19 19 20 20 14 12 14 16 19 20 19 19 18 19 18 17 16 16 16 16 16 13 16 17 18 17 18 18 14 15 11 6 9
13 13 13 14 14 14 15 16 17 19 20 20 20 19 18 19 19 19 11 14 18 17 19 19 19 18 18 17 18 17 17 17 17 15 16 16 15 17 17 18 17 17 16 14 11 11 12
13 13 13 14 14 14 15 16 18 18 20 20 20 14 19 19 19 12 11 13 19 18 19 19 18 18 17 18 17 17 17 18 17 17 15 16 15 15 16 16 16 15 13 13 13 11 10
12 13 13 13 14 14 15 16 17 18 20 20 16 15 18 18 14 9 14 18 17 17 17 17 17 18 18 16 16 17 17 17 16 17 16 15 11 11 16 16 15 15 15 13 10 12 10
12 12 13 13 14 14 14 15 16 18 19 20 13 14 18 18 11 8 16 17 17 18 17 18 18 17 16 16 16 17 16 16 14 16 16 16 11 11 14 14 14 15 15 14 10 9 12
11 12 13 13 13 14 14 15 16 18 18 19 12 12 11 10 10 15 16 17 17 17 16 15 16 16 16 15 14 16 16 16 14 15 12 14 12 12 11 13 13 13 14 13 12 11 12
11 11 12 13 13 14 14 15 16 18 18 18 10 12 12 11 11 14 15 17 17 17 17 15 16 16 16 14 14 15 15 15 15 13 13 13 13 12 12 12 12 13 12 12 11 11 12
11 11 11 12 13 13 14 15 16 17 18 17 12 12 10 10 13 15 11 17 17 17 17 17 15 16 16 15 16 16 15 14 14 15 14 10 10 11 10 11 10 10 11 11 11 11 10
10 11 11 12 12 13 13 14 15 17 18 15 12 13 11 7 10 11 11 16 17 16 16 16 14 14 14 15 14 15 13 14 14 14 12 11 7 8 9 9 8 10 12 11 12 12 12
10 10 11 11 12 12 13 14 15 16 17 17 14 13 9 9 5 10 15 16 16 16 15 15 14 12 15 13 13 11 11 9 11 11 11 7 6 6 7 10 10 13 14 14 12 12 12
10 10 10 11 11 12 12 13 14 15 16 17 15 14 8 6 6 12 14 14 15 14 15 16 15 12 12 10 8 8 8 8 8 8 9 8 7 8 10 11 10 13 13 15 13 11 13
10 10 10 10 11 11 12 12 13 14 15 16 15 15 11 7 9 14 13 14 9 10 10 13 11 11 9 4 6 7 8 9 11 11 7 7 4 6 8 10 10 12 13 13 12 10 12
10 10 10 10 10 11 11 12 13 14 15 15 14 15 14 7 10 12 10 11 10 8 9 8 13 9 8 5 7 5 8 9 9 7 7 6 7 10 10 9 8 10 10 12 11 11 12
10 10 10 10 10 10 11 11 12 13 14 15 13 14 15 6 9 13 13 11 10 9 8 10 9 7 7 8 6 6 3 7 8 9 8 9 7 5 6 8 8 10 12 12 11 11 10
10 10 10 10 10 10 11 11 11 12 13 14 14 14 15 13 11 12 14 14 15 14 9 7 10 9 6 6 6 4 5 5 7 10 9 9 10 10 10 9 10 12 12 11 11 9 8

GFSGBSN_925_temp_003.txt.gz
Temp
11 12 12 12 12 13 12 13 14 14 14 14 13 14 13 14 15 16 17 18 19 20 21 21 21 22 21 21 23 25 25 26 26 26 24 23 23 22 23 23 23 23 23 22 22 21 23
11 12 13 13 13 13 13 14 15 14 14 14 14 15 15 16 16 17 18 19 20 21 21 21 21 21 21 22 25 25 26 26 26 26 24 24 23 22 23 22 23 23 23 22 22 22 22
11 12 13 13 13 14 15 15 15 15 15 15 15 16 17 17 18 18 19 19 21 22 21 20 20 21 21 23 25 25 26 26 26 26 23 23 23 24 22 23 21 21 23 22 21 21 23
12 12 13 13 13 14 15 15 16 16 16 16 17 17 17 18 18 19 19 21 22 22 21 21 22 22 23 25 25 26 25 25 25 25 24 23 24 21 21 21 21 21 21 23 22 22 22
12 13 13 13 14 15 15 16 16 17 17 17 18 18 18 18 19 20 20 21 21 21 21 22 22 22 23 25 25 24 24 24 25 24 24 24 21 19 20 21 22 20 22 21 22 19 20
13 13 14 13 14 14 15 16 17 17 18 18 18 18 19 19 20 20 21 21 21 21 22 22 21 22 23 23 23 24 24 24 22 22 23 21 19 21 20 22 22 21 21 20 20 21 20
13 13 13 14 14 14 15 16 17 18 18 18 19 19 19 20 20 21 20 20 19 20 21 21 21 21 22 23 23 22 22 23 21 20 21 19 22 21 20 19 20 20 20 20 20 19 20
13 14 14 14 14 14 15 16 17 17 18 19 19 20 20 20 20 20 20 17 19 20 20 20 21 21 22 22 21 21 23 22 21 20 20 21 20 20 19 19 20 20 20 20 20 18 19
13 14 14 14 15 15 15 16 17 17 19 20 20 20 20 20 21 20 20 19 19 20 19 21 20 22 22 22 19 20 20 20 20 19 19 20 20 19 20 19 19 19 20 19 19 19 18
13 14 14 14 15 15 15 16 17 18 19 20 20 21 21 21 21 20 19 19 19 19 17 19 21 22 22 21 21 20 19 20 20 20 19 20 19 19 19 19 18 19 19 18 18 19 21
13 14 14 14 15 15 15 15 17 17 19 20 20 21 21 21 21 19 20 20 19 19 17 21 21 23 19 20 20 21 19 20 18 18 20 20 19 19 19 19 18 19 17 17 18 19 19
13 14 14 14 14 15 14 15 17 18 18 19 20 21 21 21 21 20 20 20 19 15 17 20 21 20 20 18 18 18 17 18 18 18 18 18 18 19 19 19 18 17 18 17 17 18 19
14 14 14 14 14 14 15 15 17 18 18 19 20 21 21 21 19 20 20 18 17 15 19 20 20 19 18 18 18 17 16 16 17 19 16 18 18 18 18 19 19 18 18 19 19 18 19
14 14 14 14 14 14 15 15 16 18 19 19 19 20 20 20 20 20 20 16 17 17 19 19 19 18 18 18 17 16 17 16 16 16 16 17 19 18 18 18 18 17 17 17 17 17 17
13 14 14 14 14 14 15 16 16 18 19 19 19 20 20 19 20 20 15 14 15 16 19 19 19 19 18 18 18 17 16 16 16 15 17 16 18 17 17 17 18 18 17 16 14 8 14
13 14 14 14 14 14 15 16 17 18 19 19 20 19 18 18 19 19 12 15 18 17 19 19 19 18 18 17 17 17 17 17 16 15 16 16 17 16 17 17 17 18 16 17 15 15 15
13 13 14 14 14 14 15 15 16 18 19 19 20 15 18 18 19 13 13 14 17 17 18 19 18 17 17 17 17 16 16 16 16 17 15 15 16 17 16 16 17 17 17 15 15 14 15
12 13 13 14 14 14 15 15 16 17 19 19 15 16 17 18 15 10 14 17 17 17 16 17 16 17 17 16 16 16 16 16 14 16 16 15 13 15 17 16 15 16 16 15 15 14 14
12 12 13 13 14 14 15 15 16 17 18 19 14 14 17 18 13 9 15 16 16 18 15 17 17 16 15 15 15 16 16 15 14 16 16 15 14 15 16 16 16 16 15 13 12 12 14
11 12 13 13 14 14 14 15 16 17 18 18 12 13 12 10 11 14 15 16 17 16 15 15 15 16 15 15 14 15 15 16 14 14 12 14 13 14 15 16 15 14 14 14 14 14 15
11 11 12 13 13 13 14 15 16 17 18 18 10 12 12 12 13 14 15 16 16 17 16 15 16 16 15 14 14 14 15 15 15 14 13 14 14 13 13 14 13 14 14 13 13 14 13
11 11 12 12 13 13 14 15 16 17 18 17 13 12 10 10 13 15 12 16 16 16 17 16 15 15 15 15 15 15 15 14 15 14 13 11 13 11 11 11 11 11 12 12 13 13 13
10 11 11 12 12 12 13 14 15 16 17 15 11 12 12 7 10 12 12 15 16 15 15 15 15 14 14 15 15 15 14 12 14 14 13 12 11 10 12 10 10 12 13 13 13 13 14
10 10 11 11 12 12 13 13 14 15 16 16 14 13 10 10 7 11 14 15 15 16 15 14 14 13 15 12 12 11 10 10 11 11 11 7 9 8 11 11 12 16 14 14 14 14 14
10 10 10 10 11 12 12 13 14 14 15 16 15 14 9 7 7 12 14 13 13 13 13 14 13 11 11 11 10 10 10 10 8 8 9 9 8 9 10 12 12 14 15 14 13 14 13
10 10 10 10 10 11 12 12 13 14 15 15 15 15 11 7 10 13 13 13 11 10 11 12 11 10 9 7 9 10 12 10 13 11 7 8 6 10 9 11 11 13 13 12 13 13 13
10 10 10 10 10 10 11 12 13 13 14 15 14 15 14 8 10 12 12 12 10 10 10 9 12 10 9 7 8 10 12 9 12 9 8 7 8 10 11 10 11 12 11 12 12 11 11
10 10 10 10 10 10 11 11 12 13 14 14 14 15 15 7 10 12 12 11 10 10 10 10 10 8 7 8 9 9 8 10 10 11 10 11 10 8 8 9 10 11 12 12 12 10 10
10 10 10 10 10 10 10 11 11 12 13 14 14 14 15 12 11 12 13 14 14 14 10 7 11 9 9 7 7 6 8 5 8 11 9 11 11 11 10 11 11 11 12 11 9 9 7

GFSGBSN_925_temp_009.txt.gz
Temp
10 11 11 11 12 11 11 10 10 12 13 14 14 14 14 14 11 11 13 15 17 18 19 20 20 20 20 26 28 27 26 27 27 28 31 32 31 32 31 31 31 30 30 30 30 30 30
11 11 11 12 12 12 11 11 13 14 14 14 14 14 14 15 14 14 15 17 18 19 19 19 19 20 21 27 27 27 27 28 29 30 31 32 32 32 31 31 31 31 30 30 30 30 29
11 11 12 12 12 13 13 13 14 14 14 14 14 14 15 15 16 17 17 18 19 20 20 20 20 18 25 28 27 28 28 28 28 29 31 30 31 31 31 29 30 30 29 30 29 30 29
11 12 12 12 13 13 14 15 15 15 15 15 15 15 16 16 17 18 18 19 19 20 20 19 20 19 27 26 27 27 28 29 28 29 29 29 30 31 31 30 30 29 30 29 29 29 29
11 12 12 12 13 13 15 15 16 16 16 16 16 17 17 18 18 18 19 19 20 20 20 20 20 22 27 26 27 27 27 29 28 28 28 28 30 30 29 29 29 30 30 29 28 29 29
11 12 12 12 13 14 15 16 16 17 17 17 17 18 18 18 19 19 20 20 20 21 21 19 23 27 28 27 27 26 27 27 29 29 29 30 30 30 31 30 29 30 29 29 29 29 29
12 13 12 13 13 14 15 16 16 17 17 18 18 18 19 19 19 20 20 19 24 24 26 27 28 27 28 27 26 28 27 28 29 29 29 29 30 29 28 27 28 28 28 29 29 27 27
12 13 12 13 14 14 15 16 17 18 18 18 18 19 19 19 20 20 20 26 24 26 25 27 27 27 26 27 28 28 28 28 29 29 29 29 27 27 27 27 27 27 28 28 28 27 27
12 13 12 13 13 14 15 16 17 18 18 19 19 19 20 20 20 21 24 23 22 23 26 26 27 27 27 28 26 26 28 29 29 28 29 28 26 26 26 27 27 27 27 26 26 27 28
13 13 13 13 14 14 15 16 18 18 19 19 20 20 20 20 21 23 24 21 21 21 26 25 27 27 27 27 26 26 26 27 28 28 28 26 26 26 26 26 26 26 25 25 25 26 27
13 13 13 13 14 14 15 17 18 19 19 20 20 20 20 20 23 25 22 21 21 23 24 25 26 26 27 27 26 26 26 28 27 26 26 25 25 26 25 25 25 25 24 25 25 26 27
13 13 13 13 14 14 15 17 18 19 19 20 20 20 20 21 22 21 20 21 23 24 22 25 26 26 26 26 26 27 27 27 26 27 27 25 26 25 25 25 25 25 25 25 26 27 25
13 13 13 13 14 14 15 16 18 19 19 20 20 20 20 21 24 19 20 24 25 23 25 24 25 26 26 25 25 26 25 25 26 25 25 26 25 25 25 26 26 26 26 25 24 24 24
13 12 13 13 14 14 15 16 18 19 19 19 20 20 20 19 19 20 22 25 23 25 26 26 26 26 25 25 24 25 26 25 25 26 26 26 23 24 24 24 24 25 25 23 22 23 25
12 12 12 13 14 14 15 16 18 18 19 19 20 19 21 18 20 20 25 23 24 25 26 25 26 25 24 24 25 25 24 24 23 23 24 24 24 24 23 24 24 24 23 23 21 18 20
12 13 12 13 14 14 15 16 18 18 19 19 22 22 22 20 20 22 24 22 24 25 26 26 25 25 25 25 25 25 24 23 23 23 24 23 23 23 23 24 24 24 24 23 23 19 20
12 13 13 13 14 15 15 16 18 19 19 20 22 23 19 19 20 25 23 24 24 24 25 25 25 24 25 24 25 24 23 22 23 23 23 23 23 23 23 23 24 24 23 22 23 21 20
12 13 13 13 14 15 15 16 18 19 19 19 22 23 18 18 24 24 24 24 19 24 24 24 25 25 24 24 23 23 23 22 22 22 22 21 22 21 23 22 22 23 23 22 20 20 20
12 13 13 13 14 15 15 16 17 18 19 22 24 23 19 19 21 21 22 22 24 23 24 24 23 24 24 23 22 23 22 20 21 22 21 21 21 21 23 22 22 22 22 21 20 18 18
12 12 13 13 14 15 15 16 17 18 19 20 24 21 23 23 24 24 23 23 22 23 22 23 23 23 23 22 23 22 21 20 20 21 14 18 21 21 20 22 22 21 22 22 21 18 19
12 12 13 13 14 14 15 16 17 18 19 19 24 23 22 21 22 24 24 24 23 22 23 24 23 23 23 21 22 21 22 20 20 14 19 21 19 20 21 21 21 21 21 21 21 21 19
12 12 13 13 13 14 15 16 16 18 19 21 23 22 22 22 23 23 20 23 23 22 23 23 23 23 23 21 22 21 22 21 21 20 20 20 18 17 18 21 20 19 20 21 21 21 21
11 12 12 13 13 14 15 16 17 18 19 22 19 20 23 16 22 22 22 23 23 22 21 24 23 23 21 22 22 21 21 21 21 20 19 18 17 17 16 17 16 15 19 21 21 21 20
11 11 12 12 13 14 14 15 16 17 18 20 19 22 20 19 21 23 22 23 23 23 22 23 23 20 20 21 20 20 19 19 19 18 19 15 16 13 13 13 15 20 21 21 20 20 21
10 11 11 12 12 13 14 15 15 17 18 18 17 21 19 15 22 21 22 23 21 21 21 21 19 20 21 20 18 14 15 11 14 17 17 18 16 13 13 15 17 19 19 19 18 18 20
10 10 11 11 12 13 13 14 15 16 16 16 15 15 20 13 17 22 22 22 20 20 19 17 17 18 19 17 15 13 17 19 18 17 16 15 15 15 13 13 14 18 20 19 18 16 17
10 10 10 11 11 12 13 13 14 15 16 16 15 16 20 18 20 22 21 21 22 21 20 18 17 16 19 13 14 14 18 18 18 14 11 12 11 13 13 13 15 19 18 18 15 15 15
9 9 10 10 10 11 12 13 13 14 15 15 15 16 17 18 18 18 19 20 20 21 18 19 18 17 16 12 12 14 12 17 17 19 16 15 13 11 13 12 13 18 17 14 16 16 14
9 9 10 10 10 11 11 12 13 14 14 15 18 16 15 19 18 15 15 15 17 21 21 18 20 18 18 16 13 12 11 11 14 16 20 17 17 16 16 17 19 17 17 16 16 13 12

GFSGBSN_925_temp_012.txt.gz
Temp
10 11 12 12 13 12 12 11 10 11 14 14 14 13 13 13 12 11 12 14 17 17 18 19 19 18 18 22 28 28 28 28 28 27 29 32 31 32 31 32 32 31 31 31 30 30 30
10 12 12 13 12 13 12 11 13 14 14 14 14 14 14 14 14 13 16 16 17 18 19 19 19 18 18 25 28 28 28 29 30 31 32 32 32 32 32 32 31 31 31 30 30 30 30
11 12 12 13 13 13 13 14 14 15 14 14 14 14 14 14 15 16 16 17 18 19 19 19 19 16 23 27 28 29 29 29 29 30 31 31 32 32 32 30 31 31 29 30 30 30 29
11 12 12 13 13 13 14 15 15 15 15 15 15 15 15 15 16 16 17 18 19 20 20 19 20 17 25 28 27 28 29 30 30 30 30 30 31 31 31 31 30 30 30 29 30 30 30
11 12 12 13 13 13 15 15 15 15 15 15 16 16 16 17 17 18 18 19 19 20 20 20 19 21 27 27 28 28 28 30 30 30 29 29 31 31 30 29 29 29 29 29 29 31 30
11 13 13 13 13 14 15 15 16 16 16 16 17 17 17 17 18 18 19 20 20 20 20 17 21 25 28 29 28 28 28 28 30 30 30 30 30 30 30 30 27 28 29 30 30 29 29
12 13 13 13 13 13 14 15 16 16 16 17 17 17 18 18 19 19 19 18 22 23 25 27 28 28 29 28 27 29 28 29 30 30 28 30 29 28 28 28 29 29 29 29 29 28 28
12 13 13 13 13 13 13 16 16 16 17 17 18 18 18 19 19 19 19 24 25 27 26 28 28 28 28 29 28 29 29 29 29 28 30 29 28 28 28 28 28 29 28 29 29 28 27
12 13 13 13 13 14 14 16 16 17 18 18 19 19 19 19 19 20 21 25 25 24 27 27 28 28 28 29 28 28 29 30 29 29 29 26 27 27 28 28 27 28 28 26 26 28 28
12 13 13 13 13 13 14 16 17 18 18 19 19 19 19 20 18 24 25 24 23 23 26 25 27 27 28 29 26 28 28 28 29 29 29 27 27 27 27 27 26 27 26 26 26 26 26
12 13 14 13 13 13 15 16 17 18 19 19 19 20 20 20 20 25 23 23 23 24 23 26 27 28 28 27 28 27 28 28 28 27 27 26 26 27 27 25 26 26 25 26 26 26 27
12 13 13 13 13 14 15 16 18 18 19 19 20 21 21 21 22 23 22 22 23 23 22 25 27 27 27 27 27 28 28 28 28 28 28 26 27 26 26 26 26 26 26 26 26 26 24
12 13 13 13 14 14 14 16 18 19 19 20 20 20 20 21 23 21 22 24 24 24 27 25 26 27 27 26 27 27 27 26 27 26 26 26 26 26 26 26 27 27 26 24 22 23 23
12 13 13 14 13 14 14 16 17 18 19 20 20 20 20 20 21 21 22 24 23 26 27 28 27 27 26 26 26 26 27 25 26 26 27 26 23 25 26 25 24 26 25 22 21 21 23
12 13 13 14 13 14 14 16 17 18 19 20 20 20 21 20 21 20 24 23 24 26 27 26 27 25 25 26 26 26 25 24 24 24 25 25 24 25 24 25 25 24 23 24 22 19 20
12 13 13 13 13 14 14 16 17 18 18 19 20 22 23 21 21 21 23 22 25 26 27 27 26 26 25 26 25 26 25 24 24 24 25 24 23 24 25 25 25 24 25 23 22 20 20
12 13 13 14 13 14 15 16 17 18 18 19 20 23 20 22 21 23 23 24 25 26 26 27 27 26 26 25 26 25 25 23 24 24 25 24 24 23 24 24 24 24 24 23 23 21 20
12 13 13 14 14 14 14 15 17 18 18 18 22 22 20 21 22 24 24 25 20 24 25 25 26 26 26 25 25 24 24 23 23 24 23 22 23 21 24 23 24 24 23 23 19 20 20
12 12 13 14 14 14 15 15 17 18 19 20 23 22 20 21 22 22 24 24 25 25 25 25 25 25 26 25 23 24 22 21 22 22 20 21 22 21 22 22 23 23 23 23 21 18 17
12 13 13 14 14 14 15 16 16 18 18 18 24 21 22 22 24 24 24 23 23 24 24 25 25 25 24 23 24 23 21 21 21 20 15 18 22 21 20 22 23 22 22 23 22 17 18
12 12 13 13 14 14 15 16 17 18 19 18 24 23 24 21 22 24 25 25 24 22 24 25 24 25 24 23 23 23 22 20 21 16 20 21 20 20 21 21 22 22 21 22 21 21 19
11 12 13 13 14 14 15 16 17 18 19 19 23 23 23 24 24 24 21 24 25 25 24 24 24 25 24 22 23 22 23 23 22 21 21 21 18 17 18 21 20 19 20 20 21 22 21
11 12 12 13 14 14 15 16 17 18 19 23 22 22 24 19 23 23 23 24 25 24 23 25 25 24 20 22 22 22 22 22 22 21 20 19 17 16 16 16 16 15 18 21 21 21 21
11 12 12 13 13 14 15 15 16 18 19 19 20 23 20 20 22 23 24 25 25 23 23 25 25 20 21 22 20 20 20 20 21 20 20 16 16 13 13 13 16 21 21 21 20 21 21
11 11 11 12 13 13 14 15 16 17 18 19 19 21 19 13 22 23 23 24 24 23 23 21 21 22 22 21 18 15 14 12 15 19 19 19 15 12 13 15 17 19 20 18 17 17 20
10 10 11 12 12 13 14 15 16 16 17 18 17 18 21 14 20 24 23 23 21 21 20 18 19 21 21 17 14 14 17 20 17 17 17 17 15 15 12 13 14 18 20 19 19 16 17
10 10 11 11 12 12 13 14 15 16 17 17 16 17 18 19 22 21 23 22 23 21 19 19 18 17 20 13 12 14 18 20 18 15 12 11 13 12 13 13 14 19 19 18 15 15 15
9 10 10 10 11 12 12 13 14 15 16 16 16 17 17 17 19 20 21 22 22 22 18 19 18 18 16 11 12 15 13 16 17 19 14 12 12 11 13 12 13 19 18 15 16 16 15
9 9 10 10 11 11 12 12 13 14 15 16 18 17 17 19 18 17 16 16 17 18 21 19 20 18 18 15 15 14 11 11 13 16 21 17 17 16 15 15 18 19 17 16 14 13 11

GFSGBSN_925_temp_015.txt.gz
Temp
10 10 10 12 13 12 13 12 12 12 12 12 12 13 14 14 14 12 11 12 13 15 16 17 16 17 17 18 22 27 28 27 27 26 25 25 26 27 26 27 30 27 27 27 27 27 26
10 10 11 12 12 13 13 13 14 14 14 14 14 14 14 14 14 13 13 13 14 17 17 17 16 17 17 21 28 28 28 28 28 26 27 27 28 28 29 28 27 28 27 26 27 27 28
10 11 12 13 13 13 13 14 15 15 15 15 15 14 14 14 14 15 15 16 17 18 18 17 17 17 18 22 27 28 29 29 29 29 28 30 30 27 28 28 29 28 27 26 27 26 27
11 11 12 13 13 13 13 14 15 15 15 15 15 15 15 15 16 16 17 18 18 18 18 17 17 16 20 27 28 28 29 29 29 30 29 29 30 28 28 28 29 28 26 24 26 26 26
11 11 13 13 13 13 14 15 15 15 16 15 15 15 16 16 17 17 18 18 18 18 17 16 17 17 22 27 27 28 28 28 29 29 29 29 29 28 29 26 24 25 23 25 26 26 26
12 12 13 13 13 13 14 15 15 16 16 16 16 16 17 17 18 18 18 18 18 19 18 16 18 20 23 27 28 28 28 28 28 29 28 28 25 24 22 22 23 24 24 24 24 27 27
12 13 13 13 13 14 14 15 16 16 16 16 17 17 18 18 18 18 18 18 16 18 18 21 23 23 27 28 27 27 28 28 28 28 25 26 23 22 25 27 27 26 26 23 24 26 27
12 12 13 13 13 13 14 15 16 17 17 17 17 18 18 18 18 18 17 17 24 24 21 24 26 27 28 28 27 27 28 27 27 24 25 25 23 26 27 27 27 27 25 23 24 26 26
13 12 13 13 13 14 14 15 16 17 17 17 18 18 18 19 19 18 19 21 24 24 22 26 27 26 27 27 25 26 27 26 25 25 24 22 25 27 27 24 24 24 23 23 24 24 25
13 12 13 13 13 14 14 16 17 17 17 18 18 18 19 19 18 21 20 23 23 23 20 24 25 26 27 26 25 28 28 26 27 25 24 24 26 26 26 24 23 23 24 24 24 23 21
12 13 13 13 14 14 15 16 17 17 18 18 18 19 19 19 20 21 23 23 23 23 16 25 25 27 27 26 25 26 28 26 25 26 25 25 23 23 23 24 24 23 25 24 24 22 22
13 12 13 13 14 14 15 16 17 18 18 19 19 20 20 20 20 22 22 23 23 17 19 24 25 25 25 26 26 26 27 27 27 24 23 24 24 24 23 25 25 24 24 23 23 21 17
13 12 13 13 14 14 15 16 17 18 18 19 19 20 20 20 20 21 22 21 16 16 25 24 25 25 25 25 25 25 25 23 22 22 22 24 23 24 25 23 24 23 21 16 17 15 16
12 13 13 14 14 14 14 16 17 18 18 19 20 20 20 21 21 21 22 18 20 24 25 26 25 25 24 25 25 25 23 21 22 22 22 21 20 22 23 23 23 22 21 14 19 15 16
12 13 13 14 14 14 14 15 16 18 18 19 19 20 20 21 22 22 17 16 19 24 26 25 25 24 24 25 25 23 21 21 21 21 21 21 21 23 23 23 23 23 19 23 17 17 13
12 13 13 14 13 14 14 15 16 17 18 19 19 20 21 22 22 21 16 17 23 25 26 26 23 24 22 23 23 23 22 22 22 22 22 22 21 23 23 24 24 22 23 17 15 16 18
12 13 13 14 13 14 14 15 16 17 18 19 19 17 20 21 22 16 16 20 24 25 23 24 24 25 24 23 24 23 22 21 21 23 20 20 20 21 23 21 21 20 20 20 19 15 14
12 13 13 14 13 14 14 15 16 17 18 18 18 17 19 20 17 16 18 24 20 24 24 25 24 25 24 24 22 22 20 20 20 20 20 20 18 15 20 22 23 23 21 20 13 17 12
12 13 13 13 13 14 14 15 16 17 18 19 17 16 19 19 14 13 21 23 24 23 24 24 23 23 24 22 21 20 19 19 19 18 18 19 18 14 18 20 21 22 22 20 16 12 15
12 12 13 13 13 14 15 15 16 17 18 18 16 15 16 16 17 20 22 22 22 23 23 24 23 24 23 22 22 19 18 20 19 18 15 17 20 17 14 19 19 20 20 20 16 11 13
12 12 12 13 13 14 15 15 16 17 18 18 16 17 16 15 17 19 21 21 21 22 23 24 23 23 22 21 21 19 18 18 19 17 19 18 16 17 18 19 19 19 18 18 18 17 14
12 12 13 13 13 14 15 15 16 18 18 18 17 18 19 17 20 21 18 22 21 22 22 22 22 22 21 20 19 19 19 18 19 19 19 17 13 16 16 17 16 16 16 17 18 18 19
12 12 12 13 13 14 15 15 16 17 18 18 21 21 16 15 18 17 19 23 23 21 22 22 22 17 15 18 17 17 17 17 18 18 17 15 12 10 12 13 12 12 17 18 19 19 19
11 11 12 12 13 13 15 15 16 17 18 19 19 18 13 13 17 19 22 22 21 22 21 19 18 16 18 17 15 14 14 15 17 17 16 13 11 8 8 9 11 16 18 18 17 17 17
11 11 11 12 12 13 14 15 16 17 18 19 18 17 11 9 17 20 23 22 19 17 17 17 18 18 16 16 11 13 10 11 13 17 16 15 9 7 9 9 13 17 18 17 16 15 14
10 11 11 12 12 13 14 15 16 17 18 18 18 18 14 10 14 21 21 18 15 15 15 17 17 18 16 8 8 10 11 14 14 15 13 12 10 8 7 8 8 13 17 17 17 11 14
10 10 11 11 12 12 13 14 15 16 17 18 17 18 17 12 16 17 17 17 17 15 13 15 16 16 13 8 10 9 12 15 13 11 9 7 8 7 10 6 10 13 17 17 13 11 12
10 10 10 11 11 12 13 14 15 16 16 17 17 17 17 12 15 16 15 18 18 14 12 14 12 11 7 10 8 8 8 10 13 13 10 9 7 9 11 10 9 15 16 13 12 13 11
10 10 10 10 11 12 12 13 14 15 16 17 17 17 17 14 14 16 16 16 17 17 14 14 14 14 11 9 8 8 9 10 9 11 14 12 11 10 10 10 12 15 14 13 12 11 10

GFSGBSN_925_temp_021.txt.gz
Temp
11 11 11 11 11 12 12 13 13 13 12 13 11 13 12 12 10 11 11 10 9 9 9 12 14 15 14 16 19 26 26 26 24 23 22 21 22 23 24 24 23 24 25 25 24 24 23
11 11 11 11 11 13 12 13 13 13 13 14 13 13 14 14 13 12 12 10 9 9 10 14 14 14 13 20 26 25 25 26 24 22 22 22 23 23 24 23 24 24 25 24 25 25 25
11 11 11 11 12 12 13 13 13 14 14 15 14 14 14 14 13 13 13 11 10 11 14 14 14 13 14 20 26 26 25 26 25 24 22 24 24 24 24 24 24 23 24 25 25 25 25
11 11 11 12 12 12 13 13 13 13 15 15 14 14 14 14 14 13 14 12 12 14 14 14 13 12 17 25 25 26 26 26 27 26 26 28 26 24 26 25 22 23 22 23 24 25 23
11 11 11 12 12 12 13 13 14 14 15 15 14 14 14 14 14 14 15 14 14 14 13 13 13 13 20 25 26 27 27 27 27 27 27 27 26 22 22 21 20 20 21 23 24 23 24
11 11 11 12 12 13 13 13 13 14 15 15 15 15 15 15 15 15 14 14 14 13 13 13 14 16 21 25 26 27 27 27 27 26 25 23 20 21 19 20 21 23 23 22 22 23 23
12 11 11 11 12 13 13 14 14 15 15 15 15 15 16 16 16 16 16 14 14 15 13 19 21 21 23 26 26 27 27 27 25 22 22 21 21 22 22 23 23 24 22 22 22 24 21
12 11 11 11 12 13 13 14 14 15 15 15 15 16 16 17 16 16 16 15 20 20 20 18 19 20 22 24 25 25 27 25 24 22 23 21 22 23 21 21 22 22 21 22 23 22 19
12 12 12 11 12 13 13 14 14 15 16 16 16 16 17 17 17 16 17 19 20 20 19 22 21 22 23 24 24 25 25 24 24 24 23 21 23 23 22 21 21 20 21 22 23 21 19
12 11 12 12 12 13 13 15 14 16 16 16 16 17 17 17 16 17 18 20 20 21 17 22 24 25 26 24 24 25 26 25 23 22 21 22 21 22 21 22 21 22 22 22 22 20 19
12 11 12 12 13 13 13 15 15 16 16 17 17 17 18 17 18 16 20 21 21 20 15 22 24 26 25 24 24 25 25 24 23 22 21 22 22 21 22 22 22 22 22 22 22 19 19
12 12 12 12 13 13 13 14 15 16 17 17 17 17 18 17 18 20 21 21 21 15 18 22 24 24 24 24 24 24 23 21 22 21 20 21 22 22 22 23 23 23 21 18 17 17 16
12 12 12 12 13 13 13 14 15 16 17 18 17 18 18 18 18 20 21 18 15 14 22 22 22 23 23 23 22 22 20 19 20 20 20 20 21 21 22 22 21 20 18 15 16 15 16
12 12 12 12 13 13 14 15 15 16 18 18 17 19 19 19 20 21 21 16 18 20 21 22 22 22 22 22 21 21 20 19 19 19 18 18 19 21 21 22 21 20 18 14 19 15 15
12 11 12 12 13 13 14 15 15 17 18 18 18 18 18 20 20 21 15 14 17 18 22 22 22 21 22 22 21 20 19 19 20 20 20 19 20 21 22 22 21 21 17 18 14 12 13
12 12 11 12 12 13 14 14 16 17 18 18 19 17 19 19 21 20 14 15 19 21 23 22 21 21 21 21 21 19 20 20 20 18 19 19 19 21 22 21 21 20 19 17 12 16 17
12 12 11 12 12 13 14 14 16 17 18 18 18 15 18 19 21 13 14 16 20 22 23 23 21 21 21 20 20 19 19 18 18 19 18 19 18 18 20 19 19 18 18 16 15 12 13
12 12 11 12 13 13 14 15 16 17 17 18 14 14 17 19 14 11 15 18 20 22 21 22 21 22 20 20 18 18 18 18 16 18 19 18 15 14 19 19 20 20 19 16 12 16 10
12 11 11 12 13 13 14 15 16 17 17 18 12 13 17 18 12 10 16 20 21 22 22 22 22 21 20 18 17 18 17 17 17 17 18 18 15 13 16 17 18 20 18 14 12 10 13
11 11 12 13 13 13 14 15 16 17 18 19 12 12 12 11 12 16 18 20 21 21 22 21 21 20 20 18 16 16 17 18 17 17 14 16 15 15 14 17 17 18 18 16 14 10 12
11 11 12 12 13 13 14 14 16 17 18 19 12 13 13 13 14 15 18 20 20 21 21 21 21 21 19 18 17 16 17 17 17 16 16 15 15 16 15 15 17 17 17 15 15 14 14
11 12 12 12 13 14 14 15 16 17 17 17 13 13 12 12 15 16 16 18 19 20 21 21 19 18 19 18 17 16 16 17 18 17 15 13 12 15 15 13 13 16 15 14 14 15 14
11 12 12 12 13 14 14 15 16 17 17 16 15 14 13 11 13 14 14 18 19 19 18 18 17 15 15 16 15 14 14 14 15 15 13 12 10 10 12 10 12 11 13 15 16 16 15
11 12 12 13 13 14 13 15 16 17 19 19 17 14 12 11 13 15 17 19 18 19 18 17 16 15 17 13 14 13 12 12 13 12 13 10 8 5 8 8 11 15 15 15 15 15 14
11 12 12 13 13 13 13 15 16 17 19 18 18 15 11 8 13 17 16 15 15 14 15 15 15 14 13 12 10 13 9 11 11 11 11 11 7 6 7 9 12 16 15 14 14 14 12
11 12 12 13 13 13 14 15 16 17 19 19 17 17 12 11 14 16 15 16 13 13 13 15 14 13 11 6 8 10 12 14 13 13 11 9 7 7 6 8 9 13 14 14 15 11 11
11 11 12 12 12 13 14 15 16 18 19 20 17 16 15 11 13 16 14 14 12 12 11 14 15 14 11 4 5 8 11 12 12 11 8 7 4 6 1 5 9 11 14 15 13 12 10
11 11 12 12 13 13 14 15 16 17 18 18 15 16 17 9 13 14 15 14 12 12 11 12 12 10 6 8 7 6 5 9 10 11 10 9 8 7 6 5 11 12 13 13 12 11 11
11 11 12 12 12 13 14 15 16 17 18 18 17 16 18 11 12 14 14 15 15 15 11 11 13 11 10 7 5 6 5 8 8 10 11 11 10 9 10 10 12 11 13 12 10 10 9